Date String (YYYY-MM-DD hh:mm:ss) UTC,Instrument flags,Ambient pressure (hPa),Sample flow (lpm),Bypass flow (lpm),Sample temperature (°C),Ambient temperature (°C),ASC tube jacket temperature (°C),LED temperature (°C),Box temperature (°C),Sample RH (%),Span deviation,Mass concentration (μg/m³),Mass concentration (μg/m³),Mass concentration (μg/m³)
DateTimeUTC,F1_M11,P_M11,Q1_M11,Q2_M11,T1_M11,T2_M11,T3_M11,T4_M11,T5_M11,U1_M11,ZSPAN_M11,X0_M11,X2_M11,X1_M11
2022-11-17 20:00:00,,0832.7,4.99,0.00,21.7,20.2,00.0,30.7,23.3,12.5,0000.0,0007.95,0005.47,0005.30
2022-11-17 20:01:00,,0832.6,5.00,0.00,21.7,20.9,00.0,30.6,23.5,12.6,0000.0,0007.99,0005.49,0005.33
2022-11-17 20:02:00,,0832.6,5.01,0.00,21.8,21.9,00.0,30.6,23.7,12.4,0000.0,0008.09,0005.53,0005.36
2022-11-17 20:03:00,,0832.6,5.00,0.00,21.9,22.0,00.0,30.6,23.9,12.2,0000.0,0008.10,0005.56,0005.38
2022-11-17 20:04:00,,0832.6,4.99,0.00,21.9,21.6,00.0,30.7,23.8,12.1,0000.0,0008.08,0005.55,0005.38
2022-11-17 20:05:00,,0832.6,5.00,0.00,21.9,21.2,00.0,30.7,23.7,12.0,0000.0,0008.05,0005.54,0005.38
2022-11-17 20:06:00,,0832.6,5.01,0.00,21.9,20.9,00.0,30.8,23.7,12.0,0000.0,0008.05,0005.53,0005.37
2022-11-17 20:07:00,,0832.7,4.99,0.00,21.9,20.7,00.0,30.8,23.6,12.1,0000.0,0008.04,0005.51,0005.36
2022-11-17 20:08:00,,0832.6,5.00,0.00,21.8,20.6,00.0,30.8,23.6,12.1,0000.0,0008.06,0005.53,0005.37
2022-11-17 20:09:00,,0832.6,5.00,0.00,21.8,20.5,00.0,30.8,23.5,12.1,0000.0,0008.13,0005.52,0005.37
2022-11-17 20:10:00,,0832.6,5.01,0.00,21.8,20.4,00.0,30.8,23.5,12.1,0000.0,0008.17,0005.51,0005.37
2022-11-17 20:11:00,,0832.6,5.01,0.00,21.8,20.3,00.0,30.8,23.4,12.0,0000.0,0008.18,0005.51,0005.37
2022-11-17 20:12:00,,0832.6,4.99,0.00,21.7,20.4,00.0,30.7,23.5,12.0,0000.0,0008.18,0005.50,0005.35
2022-11-17 20:13:00,,0832.6,5.00,0.00,21.8,21.3,00.0,30.7,23.7,12.0,0000.0,0008.10,0005.49,0005.36
2022-11-17 20:14:00,,0832.6,5.00,0.00,21.9,22.3,00.0,30.7,23.9,11.9,0000.0,0008.15,0005.48,0005.35
2022-11-17 20:15:00,,0832.6,5.00,0.00,22.0,22.1,00.0,30.8,24.0,11.9,0000.0,0008.97,0005.48,0005.35
2022-11-17 20:16:00,,0832.5,5.01,0.00,22.0,21.7,00.0,30.8,24.0,11.9,0000.0,0008.92,0005.45,0005.33
2022-11-17 20:17:00,,0832.5,5.00,0.00,22.0,21.4,00.0,30.8,23.9,11.9,0000.0,0008.90,0005.43,0005.29
2022-11-17 20:18:00,,0832.5,5.00,0.00,22.0,21.1,00.0,30.9,23.8,11.9,0000.0,0008.93,0005.43,0005.28
2022-11-17 20:19:00,,0832.5,4.99,0.00,22.0,20.9,00.0,30.9,23.7,11.9,0000.0,0008.90,0005.40,0005.25
2022-11-17 20:20:00,,0832.5,5.00,0.00,21.9,20.7,00.0,30.9,23.7,12.0,0000.0,0008.82,0005.37,0005.22
2022-11-17 20:21:00,,0832.6,5.01,0.00,21.9,20.6,00.0,30.9,23.6,12.1,0000.0,0008.65,0005.35,0005.19
2022-11-17 20:22:00,,0832.6,5.00,0.00,21.9,20.5,00.0,30.9,23.6,12.1,0000.0,0008.64,0005.32,0005.16
2022-11-17 20:23:00,,0832.6,5.00,0.00,21.9,20.4,00.0,30.9,23.6,12.2,0000.0,0008.67,0005.32,0005.14
2022-11-17 20:24:00,,0832.6,5.00,0.00,21.9,20.4,00.0,30.8,23.6,12.2,0000.0,0008.73,0005.28,0005.10
2022-11-17 20:25:00,,0832.5,5.00,0.00,21.8,20.4,00.0,30.8,23.6,12.2,0000.0,0008.65,0005.25,0005.06
2022-11-17 20:26:00,,0832.5,5.00,0.00,21.8,20.5,00.0,30.8,23.6,12.0,0000.0,0007.83,0005.22,0005.04
2022-11-17 20:27:00,,0832.5,4.98,0.00,21.9,21.5,00.0,30.8,23.8,11.9,0000.0,0007.94,0005.22,0005.04
2022-11-17 20:28:00,,0832.6,5.02,0.00,22.0,22.3,00.0,30.8,24.0,11.8,0000.0,0007.92,0005.23,0005.06
2022-11-17 20:29:00,,0832.6,4.99,0.00,22.1,22.1,00.0,30.8,24.1,11.8,0000.0,0007.86,0005.22,0005.07
2022-11-17 20:30:00,,0832.6,4.99,0.00,22.1,21.7,00.0,30.9,24.0,11.8,0000.0,0007.88,0005.23,0005.08
2022-11-17 20:31:00,,0832.6,5.00,0.00,22.1,21.4,00.0,30.9,23.9,11.8,0000.0,0007.87,0005.23,0005.09
2022-11-17 20:32:00,,0832.6,5.01,0.00,22.1,21.2,00.0,30.9,23.8,11.7,0000.0,0007.86,0005.23,0005.09
2022-11-17 20:33:00,,0832.6,4.99,0.00,22.0,21.0,00.0,30.9,23.8,11.8,0000.0,0007.85,0005.24,0005.09
2022-11-17 20:34:00,,0832.6,4.99,0.00,22.0,20.8,00.0,30.9,23.8,11.8,0000.0,0007.81,0005.26,0005.11
2022-11-17 20:35:00,,0832.6,5.00,0.00,22.0,20.8,00.0,30.9,23.8,11.9,0000.0,0007.74,0005.28,0005.13
2022-11-17 20:36:00,,0832.5,5.00,0.00,22.0,20.7,00.0,30.9,23.8,11.9,0000.0,0007.65,0005.27,0005.12
2022-11-17 20:37:00,,0832.5,5.00,0.00,22.0,20.7,00.0,30.9,23.8,11.8,0000.0,0007.59,0005.25,0005.10
2022-11-17 20:38:00,,0832.5,5.00,0.00,22.0,20.6,00.0,30.9,23.7,11.8,0000.0,0007.48,0005.24,0005.09
2022-11-17 20:39:00,,0832.6,5.00,0.00,22.0,20.5,00.0,30.9,23.7,11.9,0000.0,0007.69,0005.23,0005.07
2022-11-17 20:40:00,,0832.5,4.99,0.00,21.9,20.5,00.0,30.9,23.7,12.0,0000.0,0007.66,0005.20,0005.03
2022-11-17 20:41:00,,0832.5,5.01,0.00,22.0,21.2,00.0,30.9,23.8,12.0,0000.0,0007.61,0005.16,0004.99
2022-11-17 20:42:00,,0832.5,4.99,0.00,22.1,22.2,00.0,30.9,24.1,11.9,0000.0,0007.59,0005.13,0004.95
2022-11-17 20:43:00,,0832.5,4.99,0.00,22.2,22.4,00.0,30.9,24.2,11.6,0000.0,0007.59,0005.08,0004.90
2022-11-17 20:44:00,,0832.5,5.02,0.00,22.2,22.0,00.0,31.0,24.1,11.4,0000.0,0007.58,0005.02,0004.84
2022-11-17 20:45:00,,0832.5,4.99,0.00,22.2,21.6,00.0,31.0,24.0,11.4,0000.0,0007.50,0004.92,0004.76
2022-11-17 20:46:00,,0832.5,5.00,0.00,22.2,21.3,00.0,31.0,23.9,11.4,0000.0,0007.44,0004.85,0004.69
2022-11-17 20:47:00,,0832.5,5.01,0.00,22.1,21.0,00.0,31.0,23.9,11.5,0000.0,0007.44,0004.81,0004.65
2022-11-17 20:48:00,,0832.5,5.01,0.00,22.1,20.9,00.0,31.0,23.8,11.5,0000.0,0007.46,0004.78,0004.62
2022-11-17 20:49:00,,0832.5,4.98,0.00,22.1,20.8,00.0,31.0,23.8,11.5,0000.0,0007.39,0004.75,0004.59
2022-11-17 20:50:00,,0832.5,5.00,0.00,22.0,20.7,00.0,31.0,23.8,11.5,0000.0,0007.03,0004.71,0004.56
2022-11-17 20:51:00,,0832.5,5.01,0.00,22.0,20.6,00.0,31.0,23.7,11.6,0000.0,0007.22,0004.70,0004.53
2022-11-17 20:52:00,,0832.4,5.01,0.00,22.0,20.6,00.0,31.0,23.7,11.7,0000.0,0007.40,0004.71,0004.52
2022-11-17 20:53:00,,0832.4,4.98,0.00,22.0,20.6,00.0,31.0,23.7,11.8,0000.0,0007.49,0004.71,0004.51
2022-11-17 20:54:00,,0832.4,5.02,0.00,22.0,20.6,00.0,31.0,23.8,11.9,0000.0,0007.53,0004.71,0004.50
2022-11-17 20:55:00,,0832.5,5.00,0.00,22.0,20.6,00.0,31.0,23.8,11.9,0000.0,0007.93,0004.69,0004.49
2022-11-17 20:56:00,,0832.5,4.98,0.00,22.0,21.4,00.0,30.9,23.9,11.9,0000.0,0007.91,0004.68,0004.48
2022-11-17 20:57:00,,0832.5,5.00,0.00,22.2,22.3,00.0,30.9,24.1,11.7,0000.0,0007.88,0004.66,0004.48
2022-11-17 20:58:00,,0832.4,5.00,0.00,22.3,22.4,00.0,31.0,24.3,11.7,0000.0,0007.85,0004.64,0004.47
2022-11-17 20:59:00,,0832.4,4.99,0.00,22.3,22.1,00.0,31.0,24.2,11.7,0000.0,0008.45,0004.65,0004.47
